EW0608 Weather Reports


time (UTC)temp
C
wind
direction
speed
KPH
gust
KPH
rain 1hr
cm
rain 24hr
cm
rain mn
cm
humidity
%
barometer
mb
20260507185346 21 53 3.2 9.7 0.00 0.00 0.00 31 1008.1
20260507184859 21 5 6.4 11.3 0.00 0.00 0.00 32 1008.1
20260507184550 20 26 3.2 11.3 0.00 0.00 0.00 33 1008.0
20260507184349 20 157 4.8 11.3 0.00 0.00 0.00 32 1008.2
20260507183841 20 58 4.8 8.0 0.00 0.00 0.00 32 1008.2
20260507183354 20 360 4.8 8.0 0.00 0.00 0.00 31 1008.2
20260507183020 20 86 1.6 9.7 0.00 0.00 0.00 33 1007.9
20260507182906 20 360 3.2 9.7 0.00 0.00 0.00 34 1008.3
20260507182358 18 331 6.4 11.3 0.00 0.00 0.00 33 1008.3
20260507181850 19 355 6.4 11.3 0.00 0.00 0.00 33 1008.3
20260507181543 20 291 3.2 9.7 0.00 0.00 0.00 34 1008.1
20260507181342 20 309 6.4 9.7 0.00 0.00 0.00 32 1008.3
20260507180855 21 70 4.8 16.1 0.00 0.00 0.00 34 1008.2
20260507180350 20 53 6.4 16.1 0.00 0.00 0.00 36 1008.3
20260507180044 19 22 4.8 11.3 0.00 0.00 0.00 33 1008.2
20260507175840 20 355 3.2 11.3 0.00 0.00 0.00 33 1008.4
20260507175415 19 142 526.3 526.3 0.00 0.00 0.00 37 1008.3
20260507174910 19 175 4.8 8.0 0.00 0.00 0.00 35 1008.7
20260507174519 20 203 3.2 6.4 0.00 0.00 0.00 37 1008.5
20260507173014 18 241 3.2 9.7 0.00 0.00 0.00 41 1008.8
20260507171615 17 184 4.8 9.7 0.00 0.00 0.00 43 1009.1
20260507170010 16 348 1.6 8.0 0.00 0.00 0.00 42 1009.4
20260507164505 16 320 4.8 8.0 0.00 0.00 0.00 42 1009.8
20260507163003 17 52 4.8 9.7 0.00 0.00 0.00 44 1010.0
20260507161613 16 57 3.2 11.3 0.00 0.00 0.00 45 1010.2
20260507160100 16 331 3.2 8.0 0.00 0.00 0.00 45 1010.4
20260507154556 15 16 3.2 11.3 0.00 0.03 0.00 45 1010.7
20260507153054 15 56 3.2 9.7 0.00 0.03 0.00 47 1010.7
20260507151550 14 15 3.2 11.3 0.00 0.03 0.00 49 1010.9
20260507150049 13 315 0.0 8.0 0.00 0.03 0.00 52 1011.4
20260507144545 12 315 1.6 4.8 0.00 0.03 0.00 53 1011.8
20260507143046 12 61 1.6 12.9 0.00 0.03 0.00 52 1012.0
20260507141548 12 57 3.2 9.7 0.00 0.03 0.00 54 1012.0
20260507140040 12 82 3.2 8.0 0.00 0.03 0.00 56 1012.2
20260507134547 11 75 3.2 6.4 0.00 0.03 0.00 56 1012.3
20260507133038 11 80 4.8 9.7 0.00 0.03 0.00 56 1012.4
20260507131539 11 355 0.0 4.8 0.00 0.03 0.00 56 1012.8
20260507130036 11 54 0.0 3.2 0.00 0.03 0.00 58 1012.9
20260507124535 10 98 0.0 1.6 0.00 0.03 0.00 60 1012.9
20260507123036 10 98 0.0 3.2 0.00 0.03 0.00 63 1012.9
20260507121531 10 98 0.0 3.2 0.00 0.03 0.00 63 1012.7
20260507120029 10 65 0.0 1.6 0.00 0.03 0.00 69 1012.6
20260507114532 10 65 0.0 0.0 0.00 0.03 0.00 72 1012.6
20260507113026 10 65 0.0 0.0 0.00 0.03 0.00 73 1012.5
20260507111525 10 65 0.0 0.0 0.00 0.03 0.00 74 1012.4
20260507110024 10 65 0.0 0.0 0.00 0.03 0.00 72 1012.2
20260507104524 10 65 0.0 1.6 0.00 0.03 0.00 74 1012.2
20260507103024 10 65 0.0 3.2 0.00 0.03 0.00 71 1012.0
20260507101521 10 318 1.6 6.4 0.00 0.03 0.00 74 1011.4
20260507100017 10 340 0.0 1.6 0.00 0.03 0.00 76 1011.5
20260507094516 10 340 0.0 0.0 0.00 0.03 0.00 83 1011.4
20260507093015 10 340 0.0 0.0 0.00 0.03 0.00 79 1011.4
20260507091513 10 340 0.0 0.0 0.00 0.03 0.00 78 1011.2
20260507090012 10 340 0.0 0.0 0.00 0.03 0.00 76 1011.4
20260507084519 11 340 0.0 0.0 0.00 0.03 0.00 76 1011.4
20260507083010 11 340 0.0 0.0 0.00 0.03 0.00 78 1011.2
20260507081513 11 340 0.0 1.6 0.00 0.03 0.00 75 1011.3
20260507080007 11 340 0.0 1.6 0.00 0.03 0.00 77 1011.1
20260507074519 11 340 0.0 0.0 0.00 0.03 0.00 81 1010.8
20260507073005 11 340 0.0 4.8 0.00 0.03 0.00 83 1010.9
20260507071504 11 90 0.0 0.0 0.00 0.03 0.00 88 1010.7
20260507070010 11 90 0.0 0.0 0.00 0.03 0.00 87 1010.7
20260507064601 11 90 0.0 0.0 0.00 0.03 0.00 85 1010.8
20260507063100 11 90 0.0 0.0 0.00 0.03 0.00 83 1011.1
20260507061558 11 90 0.0 0.0 0.00 0.03 0.00 83 1011.2
20260507060106 11 90 0.0 0.0 0.00 0.03 0.00 82 1011.3
20260507054554 11 90 0.0 0.0 0.00 0.03 0.00 81 1011.5
20260507053052 11 90 0.0 1.6 0.00 0.03 0.00 81 1011.3
20260507051548 11 90 0.0 1.6 0.00 0.03 0.00 80 1011.2
20260507050046 11 90 0.0 3.2 0.00 0.03 0.00 81 1011.0
20260507045848 12 90 1.6 3.2 0.00 0.03 0.00 81 1011.4
20260507045340 12 91 1.6 3.2 0.00 0.03 0.00 82 1011.6
20260507044913 12 91 0.0 1.6 0.00 0.03 0.00 81 1011.5
20260507044547 12 91 0.0 1.6 0.00 0.03 0.00 80 1010.9
20260507044345 12 91 0.0 4.8 0.00 0.03 0.00 81 1011.3
20260507043341 12 309 0.0 3.2 0.00 0.03 0.00 80 1011.5
20260507043059 11 64 0.0 3.2 0.00 0.03 0.00 82 1011.0
20260507042853 12 64 0.0 3.2 0.00 0.03 0.00 81 1011.5
20260507042345 12 64 1.6 3.2 0.00 0.03 0.00 82 1011.4
20260507041838 12 65 0.0 1.6 0.00 0.03 0.00 83 1011.6
20260507041513 11 65 0.0 1.6 0.00 0.03 0.00 83 1011.0
20260507041411 12 65 0.0 1.6 0.00 0.03 0.00 84 1011.5
20260507040902 12 65 0.0 3.2 0.00 0.03 0.00 85 1011.7
20260507040414 12 65 1.6 3.2 0.00 0.03 0.00 83 1011.8
20260507040043 12 66 0.0 3.2 0.00 0.03 0.00 82 1011.2
20260507035842 12 66 0.0 3.2 0.00 0.15 0.03 83 1011.3
20260507035355 12 66 0.0 3.2 0.00 0.15 0.03 83 1011.3
20260507034848 12 63 0.0 4.8 0.00 0.15 0.03 81 1011.4
20260507034552 12 63 0.0 4.8 0.00 0.15 0.03 82 1010.9
20260507034340 12 63 1.6 8.0 0.00 0.15 0.03 82 1011.4
20260507033342 12 327 1.6 6.4 0.00 0.15 0.03 81 1012.0
20260507033056 12 336 3.2 6.4 0.00 0.15 0.03 81 1011.3
20260507032856 12 323 3.2 4.8 0.00 0.15 0.03 82 1011.7
20260507032349 12 338 1.6 3.2 0.00 0.15 0.03 83 1011.2
20260507031841 12 60 0.0 1.6 0.00 0.15 0.03 82 1011.1
20260507031513 12 60 0.0 4.8 0.00 0.15 0.03 82 1010.7
20260507031412 12 60 0.0 4.8 0.00 0.15 0.03 83 1011.4
20260507030843 12 101 1.6 4.8 0.00 0.15 0.03 84 1011.6
20260507030356 12 346 1.6 9.7 0.00 0.15 0.03 83 1011.6
20260507030047 12 347 1.6 9.7 0.00 0.15 0.03 83 1011.1
20260507025846 12 301 3.2 9.7 0.00 0.15 0.03 83 1011.6
20260507025339 12 67 3.2 6.4 0.00 0.15 0.03 84 1011.6
20260507024852 12 5 1.6 11.3 0.00 0.15 0.03 85 1011.6
20260507024554 12 342 1.6 11.3 0.00 0.15 0.03 87 1011.0
20260507024345 12 5 4.8 11.3 0.00 0.15 0.03 87 1011.5
20260507023838 13 95 1.6 6.4 0.00 0.15 0.03 87 1011.4
20260507023351 13 38 1.6 6.4 0.00 0.15 0.03 87 1011.5
20260507023045 12 169 0.0 1.6 0.00 0.15 0.03 86 1010.8
20260507022844 13 169 0.0 1.6 0.00 0.15 0.03 86 1011.2
20260507022337 13 169 0.0 1.6 0.00 0.15 0.03 85 1011.0
20260507021909 13 169 0.0 3.2 0.00 0.15 0.03 84 1010.8
20260507021547 13 273 0.0 3.2 0.00 0.15 0.03 84 1010.4
20260507021340 13 273 0.0 3.2 0.00 0.15 0.03 84 1010.9
20260507020852 13 261 0.0 3.2 0.00 0.15 0.03 85 1010.9
20260507020346 13 75 0.0 1.6 0.00 0.15 0.03 85 1010.7
20260507020057 13 75 0.0 1.6 0.00 0.15 0.03 86 1010.2
20260507015855 13 75 0.0 1.6 0.00 0.15 0.03 86 1010.7
20260507015347 13 75 0.0 1.6 0.00 0.15 0.03 84 1010.7
20260507014839 13 75 0.0 3.2 0.00 0.15 0.03 83 1010.7
20260507014553 13 75 0.0 3.2 0.00 0.15 0.03 83 1010.2
20260507014352 13 75 0.0 3.2 0.00 0.15 0.03 84 1010.7
20260507013904 13 293 0.0 3.2 0.00 0.15 0.03 82 1010.7
20260507013415 13 198 0.0 3.2 0.00 0.15 0.03 84 1010.7
20260507013048 13 198 0.0 3.2 0.00 0.15 0.03 83 1010.1
20260507012848 13 67 0.0 3.2 0.00 0.15 0.03 83 1010.6
20260507012343 13 49 1.6 4.8 0.00 0.15 0.03 82 1010.4
20260507011855 13 351 0.0 4.8 0.00 0.15 0.03 83 1010.5
20260507011512 13 344 3.2 4.8 0.00 0.15 0.03 84 1010.0
20260507011408 13 320 3.2 4.8 0.00 0.15 0.03 84 1010.8
20260507010353 14 273 0.0 4.8 0.00 0.15 0.03 82 1010.5
20260507010005 13 273 0.0 4.8 0.00 0.15 0.03 83 1009.8
20260507005902 14 62 0.0 1.6 0.00 0.15 0.03 83 1010.3
20260507005354 14 62 0.0 6.4 0.00 0.15 0.03 84 1010.0
20260507004847 14 56 1.6 3.2 0.00 0.15 0.03 86 1010.1
20260507004600 14 55 0.0 1.6 0.00 0.15 0.03 86 1009.5
20260507004359 14 55 0.0 1.6 0.00 0.15 0.03 85 1010.3
20260507003851 15 55 0.0 4.8 0.00 0.15 0.03 83 1010.3
20260507003343 15 55 1.6 3.2 0.00 0.15 0.03 82 1010.4
20260507003039 14 248 0.0 3.2 0.00 0.15 0.03 82 1010.2
20260507002836 15 248 0.0 3.2 0.00 0.15 0.03 81 1010.9
20260507002409 15 248 1.6 4.8 0.00 0.15 0.03 81 1011.0
20260507001840 15 246 3.2 4.8 0.00 0.15 0.03 83 1010.7
20260507001559 15 317 1.6 4.8 0.00 0.15 0.03 82 1009.8
20260507001354 15 288 1.6 4.8 0.00 0.15 0.03 81 1010.4
20260507000906 15 55 0.0 4.8 0.00 0.15 0.03 82 1010.4
20260507000400 15 284 1.6 4.8 0.00 0.15 0.03 82 1010.3
20260507000050 15 333 0.0 8.0 0.00 0.15 0.03 82 1009.7
20260506235847 15 334 1.6 8.0 0.00 0.20 0.03 83 1010.3
20260506235340 15 326 526.3 526.3 0.00 0.00 0.03 82 1010.1
20260506234852 15 38 0.0 1.6 0.00 0.20 0.03 86 1010.0
20260506234545 15 38 0.0 6.4 0.00 0.20 0.03 82 1009.2
20260506234345 15 38 0.0 6.4 0.00 0.20 0.03 83 1010.0
20260506233838 15 40 1.6 6.4 0.00 0.20 0.03 86 1010.0
20260506233351 15 329 3.2 6.4 0.00 0.20 0.03 86 1010.0
20260506233004 15 78 0.0 3.2 0.00 0.20 0.03 88 1009.2
20260506232905 15 78 0.0 3.2 0.00 0.20 0.03 88 1009.8
20260506232356 15 78 0.0 8.0 0.00 0.20 0.03 88 1009.8
20260506231849 16 78 1.6 8.0 0.00 0.20 0.03 87 1009.7
20260506231541 15 115 1.6 3.2 0.00 0.20 0.03 87 1008.8
20260506231341 16 115 0.0 4.8 0.00 0.20 0.03 86 1009.5
20260506230853 16 115 1.6 4.8 0.00 0.20 0.03 86 1009.2
20260506230406 16 213 0.0 6.4 0.00 0.20 0.03 85 1009.3
20260506230031 16 213 0.0 6.4 0.00 0.20 0.03 83 1008.4
20260506225338 16 74 1.6 6.4 0.00 0.25 0.03 81 1009.1
20260506224850 16 68 0.0 4.8 0.00 0.25 0.03 80 1009.3
20260506224504 16 294 1.6 6.4 0.00 0.25 0.03 78 1008.6
20260506224402 16 294 0.0 6.4 0.00 0.25 0.03 78 1009.3
20260506223837 17 287 1.6 11.3 0.00 0.25 0.03 80 1009.3
20260506223350 17 308 3.2 11.3 0.00 0.25 0.03 81 1009.0
20260506223045 16 49 1.6 9.7 0.00 0.25 0.03 80 1008.2
20260506222843 17 347 1.6 8.0 0.00 0.25 0.03 80 1008.9
20260506222415 17 33 1.6 8.0 0.00 0.25 0.03 81 1008.8
20260506221846 17 331 3.2 6.4 0.00 0.25 0.03 81 1008.8
20260506221610 17 345 1.6 4.8 0.00 0.25 0.03 81 1008.0
20260506221400 17 78 1.6 6.4 0.00 0.25 0.03 82 1008.7
20260506220929 17 355 1.6 9.7 0.00 0.25 0.03 81 1008.7
20260506220058 17 56 1.6 4.8 0.00 0.25 0.03 83 1008.1
20260506214603 17 48 1.6 8.0 0.00 0.28 0.03 84 1007.5
20260506213057 17 288 1.6 4.8 0.00 0.28 0.03 85 1007.2
20260506211556 17 207 0.0 4.8 0.00 0.28 0.03 86 1007.1
20260506210054 17 86 0.0 4.8 0.00 0.28 0.03 88 1006.9
20260506204559 18 37 1.6 8.0 0.00 0.36 0.03 84 1006.8
20260506203053 17 80 0.0 6.4 0.00 0.36 0.03 95 1006.6
20260506201653 17 143 0.0 0.0 0.00 0.36 0.03 97 1006.2
20260506200052 17 143 0.0 0.0 0.00 0.36 0.03 97 1006.0
20260506194552 17 143 0.0 0.0 0.00 0.48 0.03 97 1005.8
20260506193052 17 143 0.0 0.0 0.00 0.48 0.03 97 1005.9
20260506191552 17 143 0.0 0.0 0.00 0.48 0.03 97 1005.8
20260506190050 17 143 0.0 0.0 0.00 0.48 0.03 97 1006.1